Regional Weather Roundup
Issued by NWS

Home | Current Version | Previous Version | Graphics & Text | Print | Product List | Glossary On
Versions: 1 2 3 4 5 6 7 8 9 10 11 12 13 14 15 16 17 18 19 20 21 22 23 24 25 26 27 28 29 30 31 32 33 34 35 36 37 38 39 40 41 42 43 44 45 46 47 48 49 50
000
ASUS43 KDMX 301408
RWRIA

WEATHER ROUNDUP FOR IOWA
NATIONAL WEATHER SERVICE DES MOINES IA
900 AM CDT FRI SEP 30 2016

NOTE: "FAIR" INDICATES FEW OR NO CLOUDS BELOW 12,000 FEET WITH NO
SIGNIFICANT WEATHER AND/OR OBSTRUCTIONS TO VISIBILITY.

* - THESE STATIONS ARE NOT NWS STATIONS...THUS NOT UNDER NWS
QUALITY CONTROL.  THEY ALSO DO NOT REPORT WEATHER SUCH
AS PRECIPITATION OR FOG.

IAZ001>003-012>014-020>022-031>034-043>046-301500-
   NORTHWEST IOWA

CITY           SKY/WX    TMP DP  RH WIND       PRES   REMARKS
CARROLL *      SUNNY     54  52  94 NW7       30.30F
CHEROKEE *     SUNNY     47  47 100 CALM      30.32F
DENISON *      SUNNY     50  48  93 NE5       30.30S
LE MARS *      SUNNY     48  46  93 NE5       30.34S
SHELDON *      SUNNY     54  52  94 E5        30.32S
SIOUX CITY     SUNNY     50  48  93 CALM      30.33S
SPENCER        SUNNY     52  50  93 CALM      30.33S
STORM LAKE *   SUNNY     55  52  88 NE3       30.32S
$$

IAZ055>058-069>071-079>083-090>094-301500-
   SOUTHWEST IOWA

CITY           SKY/WX    TMP DP  RH WIND       PRES   REMARKS
ATLANTIC *     SUNNY     52  50  93 CALM      30.30S
AUDUBON *      SUNNY     54  50  87 CALM      30.31S
CLARINDA *       N/A     52  50  93 MISG      30.30S FOG
COUNCIL BLFS * SUNNY     52  48  87 CALM      30.30S
CRESTON *      SUNNY     55  50  82 N7        30.29R
HARLAN  *      SUNNY     52  50  93 NE5       30.34S
LAMONI         SUNNY     54  50  86 N9        30.25S
RED OAK *      SUNNY     52  50  93 NE3       30.29F
SHENANDOAH *   SUNNY     52  48  87 CALM      30.30S
$$

IAZ047>049-059>061-072>074-084-301500-
   CENTRAL IOWA

CITY           SKY/WX    TMP DP  RH WIND       PRES   REMARKS
AMES           SUNNY     56  53  90 NE8       30.27F
ANKENY *         N/A    N/A N/A N/A MISG        N/A
BOONE *        SUNNY     55  52  88 N8        30.27S FOG
CHARITON *       N/A     54  50  87 N8        30.25R
DES MOINES     MOSUNNY   58  51  78 NE9       30.27S
GRINNELL*      SUNNY     57  51  81 N7        30.26S
KNOXVILLE *    SUNNY     57  50  77 NE10      30.23F
MARSHALLTOWN   MOSUNNY   57  53  86 N12       30.26F
NEWTON *       SUNNY     55  52  88 NE12      30.25S
PELLA *        SUNNY     56  51  83 N6        30.26S
PERRY *          N/A     55  53  91 N5        30.29S
$$

IAZ004>006-015-016-023>025-035-036-301500-
   NORTH CENTRAL IOWA

CITY           SKY/WX    TMP DP  RH WIND       PRES   REMARKS
ALGONA *       SUNNY     52  50  93 NE6       30.33S
CLARION *      SUNNY     55  54  94 NE10      30.30F
ESTHERVILLE    SUNNY     51  51 100 N3        30.34R
FORT DODGE *   SUNNY     54  48  82 NE7       30.32S
MASON CITY     PTSUNNY   54  52  93 N5        30.33F
FOREST CITY *    N/A     54  52  94 NE7       30.32F
WEBSTER CITY * SUNNY     54  52  94 N7        30.28S
IOWA FALLS *     N/A     56  52  86 NE12      30.30F
$$

IAZ007>011-017>019-026>030-037>042-050>054-066-301500-
   NORTHEAST IOWA

CITY           SKY/WX    TMP DP  RH WIND       PRES   REMARKS
CEDAR RAPIDS   CLOUDY    56  54  93 N10       30.23S
CHARLES CITY * CLOUDY    55  54  94 N7        30.30F
CLINTON *      CLOUDY    59  56  89 N14       30.20F
DECORAH *      CLOUDY    55  52  88 NE9       30.29S
DUBUQUE        CLOUDY    57  54  89 NE12      30.23F
MONTICELLO *   CLOUDY    59  55  88 VRB6G13   30.23S
OELWEIN *      CLOUDY    57  54  88 N13       30.27F
WATERLOO       CLOUDY    56  52  86 N8        30.27S
$$

IAZ064-065-067-068-078-301500-
   EAST CENTRAL IOWA

CITY           SKY/WX    TMP DP  RH WIND       PRES   REMARKS
DAVENPORT      CLOUDY    59  56  89 N14       30.20F
IOWA CITY      CLOUDY    58  53  84 N9        30.24S
MT. PLEASANT * PTSUNNY   59  56  89 N8        30.21R
MUSCATINE *    CLOUDY    59  55  88 NE10      30.21S
QUAD CITIES    CLOUDY    60  56  86 N7        30.18F
$$

IAZ062-063-075>077-085>089-095>099-301500-
   SOUTHEAST IOWA

CITY           SKY/WX    TMP DP  RH WIND       PRES   REMARKS
BURLINGTON     CLOUDY    56  55  97 N13       30.18S
FAIRFIELD *    SUNNY     57  52  82 N15       30.21S
FORT MADISON * MOSUNNY   57  54  88 N8        30.19S
KEOKUK *       CLOUDY    55  52  88 N8        30.18S
OSKALOOSA *      N/A     56  51  82 NE8       30.23F
OTTUMWA        SUNNY     57  51  80 N12       30.22F
WASHINGTON *     N/A    N/A N/A N/A MISG        N/A
$$

ABBREVIATIONS USED IN REMARKS
   TC - TEMPERATURES IN CELSIUS
  WCI - WIND CHILL INDEX
   HX - HEAT INDEX
  VSB - VISIBILITY
$$





USA.gov is the U.S. government's official web portal to all federal, state and local government web resources and services.